Flag Weather past 2 weeks in Lynchburg, Virginia, U.S.A.

Now
43 °F

Clear.


Feels Like: 43 °F
Forecast: 35 / 45 °F
Wind: No wind

Location: Lynchburg Regional Airport

Current Time: Nov 25, 2014 at 7:20:09 PM

Latest Report: Nov 25, 2014 at 6:54 PM


Visibility: 10 mi

Pressure: 30.10 "Hg

Humidity: 71%

Dew point: 34 °F

Location of LynchburgLocation

Historic Weather in Lynchburg — Graph

°F

Lynchburg temperature yesterday

Maximum temperature yesterday: 70 °F (at 1:54 PM)
Minimum temperature yesterday: 54 °F (at 2:54 AM)
Average temperature yesterday: 61 °F

Past Weeks' High & Low Weather Summary

 TemperatureHumidityPressure
High70 °F (Nov 24, 1:54 PM)100% (Nov 11, 3:54 AM)30.56 "Hg (Nov 11, 3:54 AM)
Low15 °F (Nov 22, 5:54 AM)22% (Nov 21, 2:54 PM)29.61 "Hg (Nov 17, 3:04 PM)
Average40 °F61%30.12 "Hg
* Reported Nov 10 5:54 PM — Nov 25 5:54 PM, Lynchburg, Weather by CustomWeather, © 2014

Note: Actual official high and low records may vary slightly from our data, if they occured in-between our weather recording intervals... More about our weather records

Advertising

Lynchburg weather history for previous 24 hours

 ConditionsComfort  
Time TempWeatherWind HumidityBarometerVisibility
5:54 PM
Nov 25
45 °FClear.No wind60%30.09 "Hg10 mi
4:54 PM50 °FSunny.No wind48%30.06 "Hg10 mi
3:54 PM54 °FSunny.No wind31%30.04 "Hg10 mi
2:54 PM56 °FSunny.7 mph32%30.03 "Hg10 mi
1:54 PM57 °FSunny.5 mph34%30.04 "Hg10 mi
12:54 PM53 °FSunny.3 mph43%30.06 "Hg10 mi
11:54 AM51 °FSunny.3 mph50%30.08 "Hg10 mi
10:54 AM51 °FSunny.3 mph54%30.08 "Hg10 mi
9:54 AM51 °FBroken clouds.3 mph59%30.07 "HgN/A
8:54 AM49 °FSunny.No wind71%30.05 "Hg10 mi
7:54 AM51 °FSunny.3 mph61%30.02 "Hg10 mi
6:54 AM51 °FClear.3 mph63%29.99 "Hg10 mi
5:54 AM52 °FClear.No wind61%29.96 "Hg10 mi
4:54 AM56 °FClear.8 mph58%29.93 "Hg10 mi
3:54 AM57 °FClear.6 mph67%29.91 "Hg10 mi
2:54 AM58 °FClear.6 mph78%29.88 "Hg10 mi
1:54 AM58 °FClear.6 mph81%29.87 "Hg10 mi
12:54 AM59 °FClear.5 mph81%29.85 "Hg10 mi
11:54 PM
Nov 24
59 °FClear.5 mph87%29.85 "Hg10 mi
10:54 PM59 °FClear.8 mph84%29.84 "Hg10 mi
9:54 PM58 °FClear.5 mph81%29.83 "Hg10 mi
8:54 PM58 °FClear.7 mph81%29.83 "Hg10 mi
7:54 PM60 °FClear.8 mph75%29.78 "Hg10 mi
Weather by CustomWeather, © 2014

See weather overviewHow to use our weather pages